Air Quality Table

TIMESTAMP NO2 O3 PM2.5 TEMP HUM AIRPRES WS WD NO
2022-08-20 01:00 1.33 µg/m3 86.24 µg/m3 1.33 µg/m3 25.79 °C N/A 1,000.29 mbar 1.93 m/s 346.49 Deg 0.55 µg/m3
2022-08-20 00:00 2.11 µg/m3 83.54 µg/m3 1.63 µg/m3 26.09 °C N/A 1,000.46 mbar 2.38 m/s 339.82 Deg 0.57 µg/m3
2022-08-19 23:00 2.13 µg/m3 84.45 µg/m3 2.65 µg/m3 26.56 °C N/A 1,000.41 mbar 2.46 m/s 256 Deg 0.46 µg/m3
2022-08-19 22:00 2.49 µg/m3 85.52 µg/m3 3.69 µg/m3 26.96 °C N/A 1,000.09 mbar 2.79 m/s 256.58 Deg 0.52 µg/m3
2022-08-19 21:00 3.63 µg/m3 85.48 µg/m3 4.96 µg/m3 27.29 °C N/A 1,000.03 mbar 2.43 m/s 348.14 Deg 0.52 µg/m3
2022-08-19 20:00 5.2 µg/m3 86.23 µg/m3 5.24 µg/m3 27.61 °C N/A 999.50 mbar 1.78 m/s 330.27 Deg 0.49 µg/m3
2022-08-19 19:00 3.61 µg/m3 89.47 µg/m3 6.94 µg/m3 28.34 °C N/A 998.77 mbar 1.97 m/s 335.4 Deg 0.59 µg/m3
2022-08-19 18:00 4.18 µg/m3 90.11 µg/m3 9.04 µg/m3 29.52 °C N/A 998.57 mbar 1.83 m/s 329.27 Deg 0.73 µg/m3
2022-08-19 17:00 5.31 µg/m3 88.74 µg/m3 10.25 µg/m3 29.94 °C N/A 998.74 mbar 2.23 m/s 345.53 Deg 0.69 µg/m3
2022-08-19 16:00 5.74 µg/m3 90.2 µg/m3 12.33 µg/m3 31.29 °C N/A 998.49 mbar 2.19 m/s 173.6 Deg 0.94 µg/m3
2022-08-19 15:00 4.71 µg/m3 89.12 µg/m3 12.94 µg/m3 31.99 °C N/A 998.41 mbar 1.99 m/s 328.47 Deg 1.06 µg/m3
2022-08-19 14:00 4.03 µg/m3 84.74 µg/m3 10.39 µg/m3 31.66 °C N/A 998.77 mbar 1.86 m/s 332.88 Deg 0.84 µg/m3
2022-08-19 13:00 4.52 µg/m3 84.37 µg/m3 15.47 µg/m3 30.79 °C N/A 998.86 mbar 1.77 m/s 333.87 Deg 0.74 µg/m3
2022-08-19 12:00 6.23 µg/m3 84.96 µg/m3 14.32 µg/m3 32.18 °C N/A 998.81 mbar 1.37 m/s 237.43 Deg 1.09 µg/m3
2022-08-19 11:00 6.01 µg/m3 80.58 µg/m3 12.52 µg/m3 31 °C N/A 999.38 mbar 1.36 m/s 18.26 Deg 0.98 µg/m3
2022-08-19 10:00 5.75 µg/m3 76.89 µg/m3 14.17 µg/m3 30.48 °C N/A 999.37 mbar 1.45 m/s 256.65 Deg 1.08 µg/m3
2022-08-19 09:00 5.31 µg/m3 70.5 µg/m3 9.97 µg/m3 30.24 °C N/A 999.41 mbar 1.5 m/s 323.94 Deg 0.84 µg/m3
2022-08-19 08:00 7.11 µg/m3 60.89 µg/m3 8.48 µg/m3 29.43 °C N/A 998.90 mbar 1.05 m/s 339.18 Deg 0.78 µg/m3
2022-08-19 07:00 12.72 µg/m3 49.72 µg/m3 9.16 µg/m3 28.69 °C N/A 998.76 mbar 0.93 m/s 304.03 Deg 0.29 µg/m3
2022-08-19 06:00 21.32 µg/m3 25.81 µg/m3 7.98 µg/m3 27.38 °C N/A 998.42 mbar 0.52 m/s 278.38 Deg 0.97 µg/m3
2022-08-19 05:00 11.2 µg/m3 39.18 µg/m3 8.21 µg/m3 27.63 °C N/A 998.18 mbar 0.46 m/s 223.02 Deg 0.72 µg/m3
2022-08-19 04:00 6.06 µg/m3 41.53 µg/m3 6.09 µg/m3 27.44 °C N/A 997.92 mbar 0.58 m/s 251.55 Deg 0.82 µg/m3
2022-08-19 03:00 13.01 µg/m3 36.17 µg/m3 6.96 µg/m3 27.49 °C N/A 997.80 mbar 0.83 m/s 211.12 Deg 5.61 µg/m3
2022-08-19 02:00 4.08 µg/m3 49.88 µg/m3 7.32 µg/m3 29.14 °C N/A 998.55 mbar 0.67 m/s 298.47 Deg 1.32 µg/m3
2022-08-19 01:00 3.43 µg/m3 53.46 µg/m3 6.74 µg/m3 29.17 °C N/A 998.45 mbar 1.26 m/s 195.78 Deg 0.57 µg/m3
2022-08-19 00:00 3.38 µg/m3 54.44 µg/m3 6.26 µg/m3 29.25 °C N/A 997.79 mbar 1.48 m/s 209.39 Deg 0.64 µg/m3
2022-08-18 23:00 3.15 µg/m3 54.36 µg/m3 7.17 µg/m3 29.22 °C N/A 997.95 mbar 1.64 m/s 222.28 Deg 0.59 µg/m3
2022-08-18 22:00 3.99 µg/m3 57.12 µg/m3 7.32 µg/m3 29.87 °C N/A 997.80 mbar 1.71 m/s 193.65 Deg 0.51 µg/m3
2022-08-18 21:00 5.56 µg/m3 56.28 µg/m3 7.64 µg/m3 30.07 °C N/A 997.78 mbar 1.91 m/s 176.17 Deg 0.6 µg/m3
2022-08-18 20:00 7.36 µg/m3 56.26 µg/m3 8.65 µg/m3 30.22 °C N/A 997.72 mbar 2.07 m/s 186.33 Deg 0.95 µg/m3
2022-08-18 19:00 9.69 µg/m3 57.98 µg/m3 9.65 µg/m3 31.25 °C N/A 997.45 mbar 2.05 m/s 183.68 Deg 1.25 µg/m3
2022-08-18 18:00 9.01 µg/m3 64.45 µg/m3 9.69 µg/m3 32.58 °C N/A 997.64 mbar 2.58 m/s 185.82 Deg 1.76 µg/m3
2022-08-18 17:00 7.81 µg/m3 66.45 µg/m3 10.33 µg/m3 33.65 °C N/A 998.01 mbar 2.61 m/s 194.15 Deg 1.8 µg/m3
2022-08-18 16:00 7.45 µg/m3 65.18 µg/m3 9.48 µg/m3 33.66 °C N/A 998.33 mbar 2.98 m/s 201.33 Deg 1.84 µg/m3
2022-08-18 15:00 6.39 µg/m3 62.29 µg/m3 11.92 µg/m3 33.23 °C N/A 998.74 mbar 2.62 m/s 192.98 Deg 1.91 µg/m3
2022-08-18 14:00 6.44 µg/m3 66.94 µg/m3 11.84 µg/m3 34.62 °C N/A 999.15 mbar 3.06 m/s 206.17 Deg 1.59 µg/m3
2022-08-18 13:00 7.46 µg/m3 65.55 µg/m3 14.36 µg/m3 34.75 °C N/A 999.51 mbar 2.97 m/s 192.15 Deg 2.39 µg/m3
2022-08-18 12:00 10.85 µg/m3 65.78 µg/m3 15.96 µg/m3 35.55 °C N/A 999.68 mbar 2.77 m/s 192.97 Deg 3.01 µg/m3
2022-08-18 11:00 13.1 µg/m3 67.47 µg/m3 14.96 µg/m3 35.52 °C N/A 999.78 mbar 2.54 m/s 198.13 Deg 2.7 µg/m3
2022-08-18 10:00 11.88 µg/m3 65.52 µg/m3 16.59 µg/m3 34.77 °C N/A 1,000.27 mbar 1.72 m/s 192.81 Deg 2.73 µg/m3
2022-08-18 09:00 9.1 µg/m3 62.83 µg/m3 14.28 µg/m3 32.96 °C N/A 1,000.06 mbar 1.96 m/s 218.88 Deg 2.22 µg/m3
2022-08-18 08:00 12.35 µg/m3 55.35 µg/m3 8.38 µg/m3 31.47 °C N/A 1,000.17 mbar 1.81 m/s 225.25 Deg 2.86 µg/m3
2022-08-18 07:00 10.82 µg/m3 55.26 µg/m3 7.06 µg/m3 29.05 °C N/A 1,000.12 mbar 1.43 m/s 224.08 Deg 1.66 µg/m3
2022-08-18 06:00 13.51 µg/m3 42.58 µg/m3 5.83 µg/m3 27.82 °C N/A 999.59 mbar 1.44 m/s 206.92 Deg 1.56 µg/m3
2022-08-18 05:00 12.67 µg/m3 38.62 µg/m3 5.77 µg/m3 27.71 °C N/A 999.35 mbar 1.22 m/s 195.13 Deg 0.97 µg/m3
2022-08-18 04:00 10.11 µg/m3 41.48 µg/m3 6.02 µg/m3 27.76 °C N/A 999.65 mbar 0.55 m/s 217.88 Deg 0.73 µg/m3
2022-08-18 03:00 13.96 µg/m3 47.11 µg/m3 9.89 µg/m3 28.09 °C N/A 999.62 mbar 1.16 m/s 173.05 Deg 6.87 µg/m3

It is to be noted that the data is provisional and subject to quality assurance procedures. For validated data kindly refer your request to contact.air@era.org.mt